Time,TemperatureF,DewpointF,PressureIn,WindDirection,WindDirectionDegrees,WindSpeedMPH,WindSpeedGustMPH,Humidity,HourlyPrecipIn,Conditions,Clouds,dailyrainin,SoftwareType,DateUTC
2013-03-04 00:02:00,50.9,23.5,29.66,ESE,105,2.0,7.0,34,0.00,,---,0.00,VWS V13.01,2013-03-04 08:02:00,
2013-03-04 00:31:00,51.0,23.6,29.98,SW,236,1.0,5.0,34,0.00,,---,0.00,VWS V13.01,2013-03-04 08:31:00,
2013-03-04 01:01:00,50.8,23.5,29.94,WNW,291,0.0,6.0,34,0.00,,---,0.00,VWS V13.01,2013-03-04 09:01:00,
2013-03-04 01:31:00,50.8,23.5,29.83,South,187,3.0,5.0,34,0.00,,---,0.00,VWS V13.01,2013-03-04 09:31:00,
2013-03-04 02:01:00,50.6,24.6,29.94,South,189,0.0,3.0,36,0.00,,---,0.00,VWS V13.01,2013-03-04 10:01:00,
2013-03-04 02:31:00,50.4,25.1,29.99,West,259,0.0,3.0,37,0.00,,---,0.00,VWS V13.01,2013-03-04 10:31:00,
2013-03-04 03:01:00,50.0,25.4,30.02,West,259,0.0,3.0,38,0.00,,---,0.00,VWS V13.01,2013-03-04 11:01:00,
2013-03-04 03:31:00,49.8,24.6,30.02,SE,144,2.0,6.0,37,0.00,,---,0.00,VWS V13.01,2013-03-04 11:31:00,
2013-03-04 04:02:00,49.7,25.1,30.01,South,179,0.0,7.0,38,0.00,,---,0.00,VWS V13.01,2013-03-04 12:02:00,
2013-03-04 04:31:00,49.8,25.2,29.98,South,179,0.0,2.0,38,0.00,,---,0.00,VWS V13.01,2013-03-04 12:31:00,
2013-03-04 05:01:00,49.4,26.1,30.02,South,180,0.0,3.0,40,0.00,,---,0.00,VWS V13.01,2013-03-04 13:01:00,
2013-03-04 05:31:00,49.4,26.7,29.99,South,180,2.0,3.0,41,0.00,,---,0.00,VWS V13.01,2013-03-04 13:31:00,
2013-03-04 06:01:00,49.0,26.3,29.99,NW,325,2.0,7.0,41,0.00,,---,0.00,VWS V13.01,2013-03-04 14:01:00,
2013-03-04 06:31:00,48.8,26.2,29.88,NNW,327,0.0,5.0,41,0.00,,---,0.00,VWS V13.01,2013-03-04 14:31:00,
2013-03-04 07:02:00,48.9,27.4,30.06,NW,326,1.0,3.0,43,0.00,,---,0.00,VWS V13.01,2013-03-04 15:02:00,
2013-03-04 07:31:00,49.4,30.0,30.08,NNW,346,2.0,3.0,47,0.00,,---,0.00,VWS V13.01,2013-03-04 15:31:00,
2013-03-04 08:01:00,50.3,33.4,30.07,North,355,0.0,3.0,52,0.00,,---,0.00,VWS V13.01,2013-03-04 16:01:00,
2013-03-04 08:31:00,51.6,36.4,30.08,South,175,1.0,5.0,56,0.00,,---,0.00,VWS V13.01,2013-03-04 16:31:00,
2013-03-04 09:01:00,52.8,39.3,30.06,ESE,104,2.0,5.0,60,0.00,,---,0.00,VWS V13.01,2013-03-04 17:01:00,
2013-03-04 09:31:00,53.8,43.1,30.08,WSW,237,0.0,5.0,67,0.00,,---,0.00,VWS V13.01,2013-03-04 17:31:00,
2013-03-04 10:01:00,54.5,44.5,30.08,WNW,295,0.0,10.0,69,0.00,,---,0.00,VWS V13.01,2013-03-04 18:01:00,
2013-03-04 10:31:00,56.3,45.9,30.08,NNE,26,2.0,7.0,68,0.00,,---,0.00,VWS V13.01,2013-03-04 18:31:00,
2013-03-04 11:01:00,56.2,46.2,29.94,NW,311,5.0,13.0,69,0.00,,---,0.00,VWS V13.01,2013-03-04 19:01:00,
2013-03-04 11:31:00,55.2,45.6,30.03,West,273,16.0,18.0,70,0.00,,---,0.00,VWS V13.01,2013-03-04 19:31:00,
2013-03-04 12:01:00,56.6,46.6,29.98,WNW,294,3.0,16.0,69,0.00,,---,0.00,VWS V13.01,2013-03-04 20:01:00,
2013-03-04 12:31:00,56.5,46.5,30.02,WNW,296,10.0,16.0,69,0.00,,---,0.00,VWS V13.01,2013-03-04 20:31:00,
2013-03-04 13:01:00,55.8,46.2,29.83,NNW,329,12.0,15.0,70,0.00,,---,0.00,VWS V13.01,2013-03-04 21:01:00,
2013-03-04 13:31:00,55.4,45.4,29.94,West,263,9.0,18.0,69,0.00,,---,0.00,VWS V13.01,2013-03-04 21:31:00,
2013-03-04 14:01:00,56.1,46.5,29.95,NW,312,12.0,13.0,70,0.00,,---,0.00,VWS V13.01,2013-03-04 22:01:00,
2013-03-04 14:31:00,56.9,46.8,29.95,West,261,5.0,15.0,69,0.00,,---,0.00,VWS V13.01,2013-03-04 22:31:00,
2013-03-04 15:01:00,55.4,45.8,29.99,WNW,293,8.0,18.0,70,0.00,,---,0.00,VWS V13.01,2013-03-04 23:01:00,
2013-03-04 15:31:00,55.0,44.7,29.95,WNW,295,12.0,21.0,68,0.00,,---,0.00,VWS V13.01,2013-03-04 23:31:00,
2013-03-04 16:01:00,54.8,44.5,29.80,WNW,286,8.0,21.0,68,0.00,,---,0.00,VWS V13.01,2013-03-05 00:01:00,
2013-03-04 16:32:00,55.5,45.1,29.82,WNW,285,5.0,16.0,68,0.00,,---,0.00,VWS V13.01,2013-03-05 00:32:00,
2013-03-04 17:01:00,54.0,43.3,29.73,WNW,295,3.0,18.0,67,0.00,,---,0.00,VWS V13.01,2013-03-05 01:01:00,
2013-03-04 17:31:00,53.0,39.5,29.78,WNW,298,4.0,17.0,60,0.00,,---,0.00,VWS V13.01,2013-03-05 01:31:00,
2013-03-04 18:01:00,52.8,38.9,29.76,WNW,296,0.0,13.0,59,0.00,,---,0.00,VWS V13.01,2013-03-05 02:01:00,
2013-03-04 18:32:00,51.9,36.7,29.77,ESE,117,3.0,5.0,56,0.00,,---,0.00,VWS V13.01,2013-03-05 02:32:00,
2013-03-04 19:01:00,51.7,35.6,29.73,SE,145,1.0,6.0,54,0.00,,---,0.00,VWS V13.01,2013-03-05 03:01:00,
2013-03-04 19:31:00,50.8,33.3,29.86,SSE,150,2.0,4.0,51,0.00,,---,0.00,VWS V13.01,2013-03-05 03:31:00,
2013-03-04 20:01:00,49.7,30.8,29.99,SSW,195,1.0,4.0,48,0.00,,---,0.00,VWS V13.01,2013-03-05 04:01:00,
2013-03-04 20:31:00,48.4,28.0,29.96,SSE,147,4.0,5.0,45,0.00,,---,0.00,VWS V13.01,2013-03-05 04:31:00,
2013-03-04 21:02:00,47.3,24.8,30.01,SE,131,1.0,9.0,41,0.00,,---,0.00,VWS V13.01,2013-03-05 05:02:00,
2013-03-04 21:31:00,47.7,23.4,30.04,SE,132,1.0,4.0,38,0.00,,---,0.00,VWS V13.01,2013-03-05 05:31:00,
2013-03-04 22:02:00,49.3,22.8,30.04,ESE,121,2.0,6.0,35,0.00,,---,0.00,VWS V13.01,2013-03-05 06:02:00,
2013-03-04 22:31:00,50.1,22.1,30.04,ESE,122,1.0,6.0,33,0.00,,---,0.00,VWS V13.01,2013-03-05 06:31:00,
2013-03-04 23:02:00,50.1,23.5,30.04,ESE,103,3.0,10.0,35,0.00,,---,0.00,VWS V13.01,2013-03-05 07:02:00,
2013-03-04 23:32:00,49.9,26.0,30.04,SE,144,3.0,10.0,39,0.00,,---,0.00,VWS V13.01,2013-03-05 07:32:00,